Location: Peterborough
(44.3091°N, 78.3197°W)
Time: 23:44:21
(UTC-04:00)

SR - Pass Details

Date: 22 March 2023
Orbit: 581 x 867 km, 66.7° (Epoch: 02 June)

Event Time Altitude Azimuth Distance (km) Brightness Sun altitude
Rises 13:29:22 0° 321° (NW) 2,815 ? 46.4°
Reaches altitude 10° 13:31:40 10° 314° (NW) 1,924 ? 46.3°
Maximum altitude 13:35:40 39° 245° (WSW) 914 ? 46.3°
Drops below altitude 10° 13:39:51 10° 176° (S) 2,009 ? 46.2°
Sets 13:42:18 0° 169° (S) 2,956 ? 46.2°
